Presure
262 228 261 210 111 256 261 265 244 174 267 258 253 252 249 246 243 239 232 224 215 209 203 206 206 204 208 205 207 211 218 143 239 224 235 241 228 220 215 218 232 243 227
282 173 280 279 278 272 271 137 231 240 213 242 243 242 242 240 238 234 230 223 213 206 210 213 211 178 171 204 180 219 221 232 239 236 241 238 224 212 220 236 223 218 221
456 417 411 310 297 304 300 287 275 267 264 126 243 235 227 221 224 227 227 227 220 215 204 200 192 204 193 186 226 227 242 248 238 240 223 223 221 221 226 254 244 222 246
377 384 423 385 371 323 294 291 300 291 274 267 177 257 217 198 239 223 223 225 221 219 218 209 220 169 226 226 226 244 245 232 237 226 222 212 233 261 250 231 203 193 208
405 381 353 356 355 366 395 311 289 286 157 255 289 135 196 282 258 264 282 254 178 218 220 225 166 221 195 215 240 235 243 231 216 216 230 241 242 215 195 218 224 231 223
349 423 386 354 349 358 367 362 387 309 290 279 241 187 151 253 177 281 283 263 251 230 160 224 226 219 246 239 235 214 217 212 226 231 225 220 189 197 251 226 228 147 222
309 357 436 419 354 349 347 360 374 357 348 260 183 171 265 265 262 281 151 173 231 215 219 223 231 234 230 235 206 215 228 229 220 204 198 238 242 237 229 226 232 233 238
287 291 303 302 297 298 307 334 342 345 315 319 307 327 322 308 249 198 195 195 184 216 229 206 232 247 227 222 239 231 245 209 213 229 238 241 242 229 232 230 235 238 240
221 253 263 266 268 268 264 268 267 266 262 232 252 242 220 232 218 229 222 207 229 235 239 237 209 233 242 224 223 198 213 226 230 240 242 218 228 228 233 234 238 244 254
202 230 223 255 251 210 236 184 183 227 218 238 171 230 229 180 227 190 231 234 241 215 228 243 218 221 207 198 215 227 228 236 237 216 225 228 230 231 241 239 248 266 334
234 239 219 222 250 249 246 229 230 246 240 207 238 212 243 239 247 236 215 210 218 222 216 221 195 204 214 229 229 237 231 183 218 225 227 231 237 239 241 278 335 379 361
243 232 254 233 225 237 216 213 227 214 223 238 249 224 226 215 222 224 227 225 222 225 203 211 216 225 229 234 232 182 215 219 230 227 229 237 239 287 415 389 370 353 347
230 230 230 228 228 238 245 236 227 237 233 245 222 220 223 214 220 220 203 210 211 211 217 226 235 244 222 182 207 216 221 227 229 235 239 429 420 369 381 360 342 341 356
228 232 236 229 229 230 232 229 231 229 228 230 241 207 207 209 212 211 206 218 229 240 239 213 182 214 211 206 213 203 227 234 241 451 388 373 391 368 346 327 344 356 332
207 224 213 213 213 212 206 213 206 206 211 206 205 205 213 230 240 241 236 223 215 219 186 174 210 205 219 223 231 230 252 451 422 403 391 371 347 328 314 352 359 332 387
226 223 219 214 210 209 199 208 214 229 233 233 232 228 223 219 219 216 216 219 208 145 203 210 203 222 233 238 241 355 327 391 387 354 331 313 325 350 351 356 334 377 351
219 202 204 220 222 237 238 236 232 231 231 230 227 226 226 225 226 229 218 236 249 241 234 206 226 217 377 360 337 321 316 305 308 345 350 347 351 335 355 329 367 360 320
206 202 220 220 213 228 230 227 224 222 223 217 240 250 251 249 222 239 154 193 205 193 131 229 331 373 355 335 317 307 325 360 361 359 345 341 353 353 333 317 374 327 304
214 205 208 221 222 221 222 223 221 223 222 216 217 223 225 184 155 227 222 219 188 171 315 358 374 352 335 321 306 305 341 331 282 260 327 312 310 333 318 358 343 310 297
204 207 212 220 224 224 224 222 222 220 222 221 217 217 226 230 217 222 214 222 247 315 326 386 357 337 325 314 322 328 319 335 295 248 241 305 330 325 321 356 315 298 292
204 209 205 219 217 216 223 225 223 225 225 228 232 178 148 163 232 236 281 239 313 318 336 368 345 326 318 307 334 313 308 298 323 243 234 303 301 317 336 341 300 291 323
206 204 206 212 217 224 225 221 224 224 225 150 206 173 230 236 243 257 292 305 311 324 381 358 337 321 310 297 329 310 301 289 288 250 332 306 295 312 337 313 292 315 342
195 205 205 215 218 221 224 227 226 226 193 226 173 237 232 252 270 294 308 314 320 356 368 349 333 316 304 292 314 311 301 290 282 307 329 316 295 312 338 299 299 328 326
204 204 216 220 215 219 226 227 227 227 202 233 231 198 258 262 283 308 279 311 335 378 360 341 331 315 302 286 299 311 303 287 243 316 323 326 299 309 328 293 312 341 299
206 212 214 212 220 223 225 228 228 226 228 170 177 250 258 277 296 270 309 323 393 370 354 339 329 315 300 287 296 306 294 274 334 332 325 335 302 308 319 296 329 297 296
214 214 214 216 222 227 228 222 228 231 221 238 251 264 263 297 269 288 315 407 389 365 350 338 327 310 292 295 301 307 328 345 195 344 335 338 307 315 293 312 335 299 303
Wind_Speed
102 88 103 81 38 99 96 93 84 57 89 91 91 89 87 86 83 82 79 77 79 79 84 86 87 91 91 91 91 88 88 74 84 83 82 83 78 81 83 84 86 87 79
98 62 106 107 107 103 96 48 83 87 75 86 86 84 82 81 81 78 76 76 78 80 83 85 85 66 65 96 78 90 93 90 83 80 80 77 81 83 86 91 80 82 83
53 64 74 103 109 110 109 104 93 88 85 37 86 86 85 83 79 78 76 76 76 78 82 86 84 94 88 77 91 91 89 86 80 72 76 80 83 86 87 84 89 84 89
48 40 40 57 69 99 103 98 97 95 89 84 54 83 63 61 83 81 80 79 75 76 79 79 83 60 91 91 89 91 86 79 77 77 80 82 88 85 84 86 80 79 86
40 35 27 33 49 53 49 98 90 81 49 73 82 43 58 68 67 71 70 79 57 73 75 77 64 82 71 86 86 85 85 75 78 80 82 88 86 85 76 86 86 83 86
38 26 30 36 29 28 38 43 48 82 73 67 54 49 47 54 53 62 64 61 62 65 51 75 78 85 82 84 76 74 77 80 80 80 82 83 73 82 95 81 86 71 87
48 40 16 26 19 6 6 20 32 41 41 52 41 44 49 48 52 49 59 50 53 67 75 77 76 79 81 82 75 77 76 81 78 78 77 94 93 89 86 88 94 96 107
39 45 51 52 49 47 41 16 9 13 19 25 28 26 31 34 23 37 42 52 54 64 72 67 71 79 70 71 76 76 88 78 82 90 94 95 94 90 92 95 102 109 112
24 23 33 39 40 39 37 34 30 27 22 11 16 18 27 25 34 44 50 59 61 61 64 66 65 73 79 73 75 72 80 87 93 97 98 86 94 96 101 104 111 117 123
19 26 3 24 20 15 11 22 20 15 14 23 42 22 25 43 38 44 52 54 56 51 54 70 63 69 70 70 78 83 87 94 97 87 94 96 100 104 114 113 120 126 106
15 15 15 8 11 11 7 10 4 9 9 20 18 20 32 35 44 38 40 44 48 54 57 64 61 67 74 84 86 91 89 74 90 94 100 104 111 113 117 126 102 60 61
14 14 10 14 12 10 11 13 13 13 13 18 19 24 24 29 36 41 48 52 53 60 59 64 69 76 81 84 84 70 84 88 100 103 105 111 114 123 47 52 57 59 60
12 12 13 13 15 17 13 18 16 24 22 28 25 28 31 33 39 44 46 51 56 61 68 73 78 81 77 62 76 85 93 100 103 109 112 44 40 64 49 53 57 56 51
11 11 11 12 15 17 19 20 21 24 26 28 35 33 36 40 44 48 53 58 63 67 70 66 60 74 75 76 85 84 97 103 108 29 59 58 41 45 49 53 51 47 48
16 13 17 18 20 22 23 26 27 29 32 34 38 41 43 46 49 52 55 56 59 64 59 59 73 72 84 88 95 97 103 28 31 36 37 39 43 49 51 46 43 43 35
15 16 19 22 25 27 30 32 33 34 34 35 36 38 41 45 50 53 57 62 62 49 68 74 72 84 91 96 100 63 65 37 33 39 42 47 47 43 42 40 37 36 30
18 24 25 25 28 29 27 28 30 32 34 36 40 44 47 51 56 61 62 68 72 76 79 73 84 82 58 56 57 57 55 55 52 43 41 40 39 37 33 34 38 28 28
25 28 27 28 32 30 27 29 31 33 36 37 44 46 47 50 50 59 44 60 68 63 49 85 68 53 52 51 51 52 49 42 41 39 38 37 34 30 31 34 31 25 27
26 31 33 32 33 34 34 34 36 38 40 41 45 50 52 45 46 61 66 69 62 62 87 78 51 48 48 48 48 48 40 39 43 43 34 34 35 29 31 34 25 23 25
31 33 36 36 36 38 39 40 42 44 45 47 47 51 55 56 59 64 66 76 79 84 84 49 46 45 45 44 42 37 37 38 38 43 44 35 29 27 29 28 20 24 27
36 38 41 40 42 44 44 45 45 48 50 54 55 47 43 43 65 70 84 79 83 83 78 45 42 42 42 41 37 36 36 36 38 40 42 32 34 28 26 21 20 23 26
37 42 44 46 47 47 48 49 50 51 54 29 51 47 63 67 74 83 88 85 82 79 45 42 38 38 39 39 37 34 34 37 39 38 31 28 31 27 24 16 20 24 22
44 45 48 49 51 51 52 53 55 56 46 60 48 67 68 81 89 91 83 82 82 67 41 39 35 35 36 38 38 36 35 36 39 38 34 25 26 24 20 15 18 22 11
45 49 50 52 52 55 56 58 59 60 54 66 67 62 85 88 92 83 84 82 81 44 38 38 34 32 34 36 37 36 37 38 35 38 33 26 22 21 15 14 19 16 12
49 52 53 53 58 59 60 62 63 64 66 53 55 82 88 94 86 81 83 80 44 39 37 36 33 31 34 37 39 39 39 38 38 34 30 25 17 17 12 13 16 10 13
53 55 56 59 61 62 62 61 65 68 67 76 85 91 89 85 83 86 80 47 38 36 35 34 33 33 36 38 40 43 45 42 23 30 25 21 12 11 7 10 8 10 12
Wind_Direction
276 276 274 275 294 266 264 263 263 273 257 258 260 262 263 265 267 268 269 269 270 273 274 278 280 282 284 285 286 290 291 279 295 296 296 296 292 289 292 294 295 298 294
275 278 270 269 267 265 262 272 261 260 263 261 262 263 264 264 265 265 266 266 266 269 272 275 277 285 293 283 284 289 291 292 291 295 298 295 290 291 293 293 296 294 292
291 272 256 256 257 256 257 259 258 256 255 273 256 258 259 261 263 264 264 264 264 266 269 273 277 278 281 288 286 286 289 289 295 298 288 289 292 293 294 299 291 293 299
303 289 257 248 247 250 253 253 252 254 256 256 261 258 262 264 260 260 259 261 264 267 269 272 275 284 280 281 285 287 289 290 294 292 290 292 293 297 293 291 295 296 295
311 278 266 258 246 247 245 247 250 250 268 256 257 268 264 261 258 259 256 258 270 263 267 270 279 275 290 284 283 288 292 290 290 291 293 297 293 291 296 299 300 298 295
7 297 248 240 248 252 237 232 229 246 249 252 250 261 278 249 270 254 249 254 258 262 279 269 270 273 276 279 289 287 289 288 289 296 294 294 299 298 302 297 300 294 299
46 40 264 244 224 231 227 235 230 227 232 239 265 274 248 243 252 248 269 280 257 263 264 267 271 273 280 283 283 286 293 295 292 290 295 298 299 300 301 303 305 306 306
52 66 65 77 79 73 65 84 148 216 217 223 233 236 237 238 231 263 264 265 271 262 262 277 274 278 286 287 293 295 297 292 294 298 299 300 301 303 305 307 307 306 306
354 67 86 90 90 95 102 99 104 105 119 161 163 178 221 215 232 232 247 272 254 264 271 277 281 294 288 293 293 292 295 298 299 299 299 302 304 305 307 308 306 305 304
327 348 85 109 115 334 142 233 239 213 224 184 254 210 226 269 244 274 260 265 269 280 290 275 290 292 291 293 294 297 298 297 298 303 302 304 307 308 306 305 303 302 303
341 347 329 351 71 51 63 5 271 192 238 265 231 280 232 245 246 273 279 279 287 290 288 288 288 291 293 295 295 295 297 301 301 303 306 307 304 304 304 300 300 303 301
346 337 358 1 352 14 334 314 340 279 299 314 272 279 292 272 273 289 286 288 290 290 288 290 293 293 293 293 296 299 300 303 304 305 306 302 304 298 300 301 302 300 301
331 343 346 350 352 346 322 332 320 319 311 293 300 301 296 291 295 293 291 293 292 292 292 291 290 291 297 301 301 305 307 304 304 302 303 298 299 302 302 301 299 304 307
325 329 332 334 333 329 322 318 311 306 307 301 284 295 296 294 292 291 292 288 288 289 290 294 298 297 302 309 306 307 304 303 302 303 302 301 302 302 300 301 307 310 307
322 325 324 324 323 320 312 311 303 302 303 299 296 294 293 294 292 292 292 294 294 296 297 299 301 308 303 302 301 304 301 312 309 309 307 306 304 302 303 308 310 306 308
313 318 323 320 315 309 305 303 302 301 300 300 300 298 296 294 294 294 296 297 297 300 297 301 308 301 300 301 303 306 305 314 317 310 306 304 306 308 309 311 310 311 308
310 307 307 310 314 311 306 302 299 300 304 305 304 301 300 299 296 295 295 296 298 299 298 309 303 303 310 308 306 306 306 306 307 311 312 311 310 310 312 312 317 315 311
297 297 308 312 310 310 309 307 306 306 307 306 305 305 306 305 302 301 299 307 304 311 306 302 309 316 313 309 308 308 311 318 317 316 314 313 313 314 316 316 320 317 315
302 303 308 308 305 307 308 308 307 307 309 309 311 310 306 300 298 300 299 298 304 303 315 323 319 315 312 311 311 311 321 319 309 306 316 314 315 317 319 327 320 318 319
299 303 305 307 308 309 309 309 308 309 309 309 308 305 304 302 299 299 302 297 306 320 322 322 319 315 313 312 316 318 318 326 314 306 310 319 322 321 326 327 323 323 326
301 304 306 309 309 309 307 306 308 309 309 308 308 303 303 315 303 304 322 300 322 322 326 320 317 313 313 312 320 317 319 319 328 307 313 320 323 323 334 326 324 327 325
301 303 305 306 306 305 305 307 309 310 310 308 310 307 304 309 313 325 326 324 323 326 321 318 316 313 312 313 321 317 317 318 320 312 325 319 322 324 334 321 324 328 339
300 300 304 303 304 305 306 308 310 311 310 311 312 313 309 322 328 327 325 325 327 327 317 316 315 312 313 315 322 319 317 317 317 324 326 320 322 323 335 314 325 336 343
297 300 299 301 305 307 308 310 311 312 313 313 312 313 325 328 329 326 329 327 329 318 314 314 315 310 311 313 316 318 316 315 317 319 321 318 322 324 325 319 340 336 6
295 297 300 304 304 306 309 310 311 312 313 318 309 324 326 329 326 330 328 329 319 315 314 314 316 310 311 314 316 317 314 315 316 313 314 316 317 320 314 329 335 24 21
293 297 301 304 305 306 308 311 312 315 311 320 324 328 327 326 329 329 330 326 319 318 317 317 315 313 315 314 316 318 323 322 332 313 307 310 315 311 314 330 354 41 35